(133077) Jirsik = 2001 WH9 = 2003 JZ10

Discovered at Klet on 2003-05-04 by J. Ticha and M. Tichy.
(133077) Jirsík = 2003 JZ10

Jan Valerián Jirsík (1798-1883) was as Czech theologian, priest, writer and national revivalist. He served as Bishop of the Ceské Budejovice diocese from 1851 to his death. He was a keen supporter of the Czech educational system in South Bohemia and the founder of the Institute for deaf-mute persons. [Ref: Minor Planet Circ. 107740]

Orbit

Orbit type: Main Belt

Note: WebGL enabled browser required.

epoch2024-03-31.0
epoch JD2460400.5
perihelion date2022-11-11.17406
perihelion JD2459894.67406
argument of perihelion (°)323.87195
ascending node (°)184.07663
inclination (°)4.02021
eccentricity0.0447627
perihelion distance (AU)2.1464011
Tisserand w.r.t. Jupiter3.6
ΔV w.r.t. Earth (km/sec)9.1
semimajor axis (AU)2.2469820
mean anomaly (°)148.01494
mean daily motion (°/day)0.29262030
aphelion distance (AU)2.348
period (years)3.37
P-vector [x]-0.84746898
P-vector [y]0.50200414
P-vector [z]0.17259247
Q-vector [x]-0.53082152
Q-vector [y]-0.79833814
Q-vector [z]-0.28440242
absolute magnitude17.07
phase slope0.15
uncertainty0
referenceMPEC 2024-C115
observations used533
oppositions17
arc length (days)9383
first opposition used1997
last opposition used2023
residual rms (arc-secs)0.72
perturbers coarse indicatorM-v
perturbers precise indicator003Ek
first observation date used1997-09-03.0
last observation date used2023-05-14.0
computer nameMPCLINUX
JD of orbit computation2456966.817162
perihelion JD uncertainty (days)2.2653E-04
argument of perihelion uncertainty (°)7.9096E-05
ascending node uncertainty (°)4.6751E-05
inclination uncertainty (°)5.8663E-06
eccentricity uncertainty 4.0610E-08
perihelion distance uncertainty (AU)9.1564E-08
Minimum Orbit Intersection Distances (in AU)
for orbit epoch: 2460200.5, reference: E2024-CB5
Mercury1.7603
Venus1.43324
Earth1.15738
Mars0.49605
Jupiter2.62793
Saturn6.85286
Uranus16.2958
Neptune27.5354

Observations

553 total observations over interval: 1997 09 03.87598 – 2023 05 14.298201
These data are available for download (format description).

Date (UT) J2000 RA J2000 Dec Magn Location Ref
1997 09 03.87598 22 11 06.65 -07 40 12.5 20.7 V 910 – Caussols-ODAS MPS 118402
1997 09 03.90011 22 11 05.28 -07 40 23.3 21.1 V 910 – Caussols-ODAS MPS 118402
1997 09 03.92396 22 11 03.96 -07 40 33.2 21.1 V 910 – Caussols-ODAS MPS 118402
2001 11 17.29253 04 18 13.82 +15 20 16.2 19.0   704 – Lincoln Laboratory ETS, New Mexico MPS 42213
2001 11 17.30712 04 18 12.85 +15 20 12.1 20.1   704 – Lincoln Laboratory ETS, New Mexico MPS 42213
2001 11 17.32253 04 18 11.90 +15 20 08.3 19.5   704 – Lincoln Laboratory ETS, New Mexico MPS 42213
2001 11 17.33718 04 18 10.98 +15 20 04.8 20.0   704 – Lincoln Laboratory ETS, New Mexico MPS 42213
2001 11 17.35210 04 18 09.99 +15 20 00.7 19.7   704 – Lincoln Laboratory ETS, New Mexico MPS 42213
2001 11 18.28837 04 17 12.15 +15 15 51.2 19.8   704 – Lincoln Laboratory ETS, New Mexico MPS 42213
2001 11 18.30337 04 17 11.17 +15 15 47.0 19.9   704 – Lincoln Laboratory ETS, New Mexico MPS 42213
2001 11 18.31836 04 17 10.23 +15 15 43.1 19.5   704 – Lincoln Laboratory ETS, New Mexico MPS 42213
2001 11 18.34837 04 17 08.21 +15 15 34.7 19.6   704 – Lincoln Laboratory ETS, New Mexico MPS 42213
2001 12 11.22640 03 53 21.61 +13 50 17.0 19.7   704 – Lincoln Laboratory ETS, New Mexico MPS 112861
2001 12 11.24229 03 53 20.77 +13 50 13.7 19.9   704 – Lincoln Laboratory ETS, New Mexico MPS 112861
2001 12 11.25789 03 53 19.92 +13 50 12.1 20.8   704 – Lincoln Laboratory ETS, New Mexico MPS 112861
2001 12 11.27435 03 53 18.87 +13 50 09.9 20.7   704 – Lincoln Laboratory ETS, New Mexico MPS 112861
2001 12 11.29010 03 53 18.13 +13 50 06.5 19.9   704 – Lincoln Laboratory ETS, New Mexico MPS 112861
2003 05 01.33336 15 17 00.88 -13 09 48.0 20.1 V 291 – LPL/Spacewatch II MPS 112861
2003 05 01.35738 15 16 59.40 -13 09 40.1 19.4 V 291 – LPL/Spacewatch II MPS 112861
2003 05 01.38243 15 16 58.01 -13 09 30.1 20.4 V 291 – LPL/Spacewatch II MPS 112861
2003 05 04.96877 15 13 31.95 -12 48 09.5 19.1 R 246 – Klet Observatory-KLENOT MPS 80279
2003 05 04.96964 15 13 31.92 -12 48 08.8   246 – Klet Observatory-KLENOT MPS 80279
2003 05 04.97051 15 13 31.84 -12 48 08.4   246 – Klet Observatory-KLENOT MPS 80279
2003 05 04.97183 15 13 31.74 -12 48 07.7   246 – Klet Observatory-KLENOT MPS 80279
2003 05 04.97296 15 13 31.68 -12 48 07.4   246 – Klet Observatory-KLENOT MPS 80279
2003 05 04.97419 15 13 31.59 -12 48 07.0   246 – Klet Observatory-KLENOT MPS 80279
2003 05 04.97576 15 13 31.49 -12 48 06.2   246 – Klet Observatory-KLENOT MPS 80279
2003 05 04.97672 15 13 31.43 -12 48 05.7   246 – Klet Observatory-KLENOT MPS 80279
2003 05 05.95560 15 12 34.25 -12 42 18.7   246 – Klet Observatory-KLENOT MPS 80279
2003 05 05.95747 15 12 34.04 -12 42 17.6   246 – Klet Observatory-KLENOT MPS 80279
2003 05 05.95877 15 12 33.97 -12 42 16.5   246 – Klet Observatory-KLENOT MPS 80279
2003 05 05.95986 15 12 33.91 -12 42 17.5   246 – Klet Observatory-KLENOT MPS 80279
2003 05 05.96139 15 12 33.88 -12 42 16.3   246 – Klet Observatory-KLENOT MPS 80279
2003 05 05.96225 15 12 33.83 -12 42 16.3   246 – Klet Observatory-KLENOT MPS 80279
2003 05 05.96324 15 12 33.75 -12 42 15.4   246 – Klet Observatory-KLENOT MPS 80279
2003 05 27.27138 14 52 51.61 -10 53 54.3 20.4 V 691 – Steward Observatory, Kitt Peak-Spacewatch MPS 112861
2003 05 27.29944 14 52 50.23 -10 53 48.0 20.5 V 691 – Steward Observatory, Kitt Peak-Spacewatch MPS 112861
2003 05 27.32903 14 52 48.79 -10 53 40.8 20.9 V 691 – Steward Observatory, Kitt Peak-Spacewatch MPS 112861
2004 09 22.28763 00 46 03.14 +04 35 38.9 20.0   704 – Lincoln Laboratory ETS, New Mexico MPS 118402
2004 09 22.29980 00 46 02.40 +04 35 35.8 20.4   704 – Lincoln Laboratory ETS, New Mexico MPS 118402
2004 09 22.31194 00 46 01.85 +04 35 30.1 20.3   704 – Lincoln Laboratory ETS, New Mexico MPS 118402
2004 09 22.33622 00 46 00.46 +04 35 18.4 20.0   704 – Lincoln Laboratory ETS, New Mexico MPS 118402
2004 10 05.22973 00 34 20.15 +02 52 29.1 19.2 R 699 – Lowell Observatory-LONEOS MPS 115737
2004 10 05.24999 00 34 19.06 +02 52 19.3   699 – Lowell Observatory-LONEOS MPS 115737
2004 10 05.27028 00 34 17.80 +02 52 08.8   699 – Lowell Observatory-LONEOS MPS 115737
2004 10 05.29057 00 34 16.76 +02 51 58.8   699 – Lowell Observatory-LONEOS MPS 115737
2004 10 07.28102 00 32 27.38 +02 35 59.6 19.9   704 – Lincoln Laboratory ETS, New Mexico MPS 115737
2004 10 07.29245 00 32 26.61 +02 35 53.5 20.0   704 – Lincoln Laboratory ETS, New Mexico MPS 115737
2004 10 07.30346 00 32 25.96 +02 35 48.6 20.0   704 – Lincoln Laboratory ETS, New Mexico MPS 115737
2004 10 07.32572 00 32 24.72 +02 35 38.4 20.1   704 – Lincoln Laboratory ETS, New Mexico MPS 115737
2004 10 14.15707 00 26 23.76 +01 42 45.0 19.9 V 691 – Steward Observatory, Kitt Peak-Spacewatch MPS 116619
2004 10 14.18823 00 26 22.12 +01 42 31.0 20.2 V 691 – Steward Observatory, Kitt Peak-Spacewatch MPS 116619
2004 10 14.21961 00 26 20.44 +01 42 17.4 20.6 V 691 – Steward Observatory, Kitt Peak-Spacewatch MPS 116619
2006 02 20.27076 11 25 16.10 +00 49 59.1 20.3 V 703 – Catalina Sky Survey MPS 163777
2006 02 20.27834 11 25 15.78 +00 50 02.0 20.0 V 703 – Catalina Sky Survey MPS 163777
2006 02 20.28591 11 25 15.27 +00 50 04.4 19.8 V 703 – Catalina Sky Survey MPS 163777
2006 02 20.29351 11 25 14.98 +00 50 09.4 19.4 V 703 – Catalina Sky Survey MPS 163777
2006 02 24.34079 11 22 04.56 +01 18 13.2 18.8   704 – Lincoln Laboratory ETS, New Mexico MPS 165065
2006 02 24.35248 11 22 04.02 +01 18 18.1 19.0   704 – Lincoln Laboratory ETS, New Mexico MPS 165065
2006 02 24.36417 11 22 03.43 +01 18 22.3 19.3   704 – Lincoln Laboratory ETS, New Mexico MPS 165065
2006 02 24.37587 11 22 02.81 +01 18 28.9 19.5   704 – Lincoln Laboratory ETS, New Mexico MPS 165065
2006 02 27.34671 11 19 32.52 +01 40 41.9 19.4 C 704 – Lincoln Laboratory ETS, New Mexico MPS 294184
2006 02 27.35844 11 19 31.97 +01 40 49.3 18.9 C 704 – Lincoln Laboratory ETS, New Mexico MPS 294184
2006 02 27.37017 11 19 31.29 +01 40 55.9 19.3 C 704 – Lincoln Laboratory ETS, New Mexico MPS 294184
2006 02 27.38192 11 19 30.67 +01 40 59.8 19.0 C 704 – Lincoln Laboratory ETS, New Mexico MPS 294184
2006 03 05.21609 11 14 18.22 +02 27 41.4 19.5 V 691 – Steward Observatory, Kitt Peak-Spacewatch MPS 166042
2006 03 05.23339 11 14 17.23 +02 27 49.9 19.4 V 691 – Steward Observatory, Kitt Peak-Spacewatch MPS 166042
2006 03 05.25077 11 14 16.24 +02 27 58.6 19.4 V 691 – Steward Observatory, Kitt Peak-Spacewatch MPS 166042
2006 03 23.23556 10 58 32.52 +04 55 22.6 19.0 V 703 – Catalina Sky Survey MPS 167032
2006 03 23.24358 10 58 32.16 +04 55 27.2 19.3 V 703 – Catalina Sky Survey MPS 167032
2006 03 23.25165 10 58 31.76 +04 55 29.4 19.2 V 703 – Catalina Sky Survey MPS 167032
2006 03 23.25978 10 58 31.33 +04 55 35.0 19.4 V 703 – Catalina Sky Survey MPS 167032
2006 04 07.18578 10 49 52.57 +06 30 57.2 19.9 V G96 – Mt. Lemmon Survey MPS 168234
2006 04 07.19227 10 49 52.42 +06 30 59.3 19.8 V G96 – Mt. Lemmon Survey MPS 168234
2006 04 07.19877 10 49 52.28 +06 31 01.3 20.3 V G96 – Mt. Lemmon Survey MPS 168234
2006 04 07.20527 10 49 52.10 +06 31 03.2 19.9 V G96 – Mt. Lemmon Survey MPS 168234
2006 05 25.21590 11 05 37.93 +06 33 58.7 22.4 V G96 – Mt. Lemmon Survey MPS 171987
2006 05 25.22167 11 05 38.29 +06 33 57.3 21.4 V G96 – Mt. Lemmon Survey MPS 171987
2006 05 25.22727 11 05 38.61 +06 33 56.2 20.8 V G96 – Mt. Lemmon Survey MPS 171987
2006 05 25.23289 11 05 38.97 +06 33 54.5 20.7 V G96 – Mt. Lemmon Survey MPS 171987
2007 08 08.74566 21 24 53.78 -09 52 00.3 20.2 R D29 – Purple Mountain Observatory, XuYi Station MPS 212991
2007 08 08.75670 21 24 52.98 -09 52 05.0 19.8 R D29 – Purple Mountain Observatory, XuYi Station MPS 212991
2007 08 08.76928 21 24 52.22 -09 52 10.7 20.3 R D29 – Purple Mountain Observatory, XuYi Station MPS 212991
2007 08 08.78467 21 24 51.38 -09 52 15.5 20.5 R D29 – Purple Mountain Observatory, XuYi Station MPS 212991
